• In Netherlands
  • List of Countries
  • For 7 days
  • Water Temperature
  • Satellite Maps
  • Weather Map
  • Weather Widgets
  • user-avatar
    Login

    Hourly Weather Elbasan

    Today, 28 July, Friday

    Time Temperature Precipitation Wind Pressure Humidity
    00:00 +19°C° 0 mm 1 mps 732 mmHg 76%
    01:00 +18°C° 0 mm 1 mps 732 mmHg 74%
    02:00 +18°C° 0 mm 1 mps 732 mmHg 75%
    03:00 +18°C° 0 mm 1 mps 732 mmHg 75%
    04:00 +18°C° 0 mm 1 mps 732 mmHg 76%
    05:00 +20°C° 0 mm 1 mps 732 mmHg 71%
    06:00 +21°C° 0 mm 1 mps 733 mmHg 65%
    07:00 +24°C° 0 mm 2 mps 733 mmHg 61%
    08:00 +25°C° 0 mm 2 mps 733 mmHg 54%
    09:00 +27°C° 0 mm 3 mps 733 mmHg 46%
    10:00 +28°C° 0 mm 3 mps 733 mmHg 39%
    11:00 +29°C° 0 mm 4 mps 733 mmHg 37%
    12:00 +30°C° 0 mm 4 mps 733 mmHg 35%
    13:00 +32°C° 0 mm 5 mps 733 mmHg 33%
    14:00 +32°C° 0 mm 4 mps 733 mmHg 34%
    15:00 +30°C° 0 mm 4 mps 734 mmHg 35%
    16:00 +30°C° 0 mm 4 mps 734 mmHg 36%
    17:00 +28°C° 0 mm 3 mps 734 mmHg 43%
    18:00 +25°C° 0 mm 2 mps 734 mmHg 49%
    19:00 +23°C° 0 mm 1 mps 734 mmHg 56%
    20:00 +23°C° 0 mm 1 mps 734 mmHg 58%
    21:00 +22°C° 0 mm 1 mps 735 mmHg 60%
    22:00 +21°C° 0 mm 1 mps 735 mmHg 62%
    23:00 +21°C° 0 mm 1 mps 736 mmHg 62%

    Tomorrow, 29 July, Saturday

    Time Temperature Precipitation Wind Pressure Humidity
    00:00 +21°C° 0 mm 1 mps 736 mmHg 62%
    01:00 +21°C° 0 mm 1 mps 736 mmHg 62%
    02:00 +21°C° 0 mm 1 mps 736 mmHg 62%
    03:00 +20°C° 0 mm 1 mps 736 mmHg 63%
    04:00 +20°C° 0 mm 1 mps 736 mmHg 63%
    05:00 +22°C° 0 mm 1 mps 736 mmHg 58%
    06:00 +24°C° 0 mm 1 mps 737 mmHg 54%
    07:00 +26°C° 0 mm 1 mps 737 mmHg 49%
    08:00 +29°C° 0 mm 1 mps 737 mmHg 44%
    09:00 +31°C° 0 mm 1 mps 737 mmHg 39%
    10:00 +33°C° 0 mm 1 mps 738 mmHg 34%
    11:00 +35°C° 0 mm 2 mps 737 mmHg 33%
    12:00 +36°C° 0 mm 2 mps 737 mmHg 31%
    13:00 +36°C° 0 mm 3 mps 737 mmHg 30%
    14:00 +36°C° 0 mm 3 mps 737 mmHg 31%
    15:00 +35°C° 0 mm 3 mps 737 mmHg 33%
    16:00 +35°C° 0 mm 3 mps 737 mmHg 35%
    17:00 +31°C° 0 mm 2 mps 736 mmHg 42%
    18:00 +29°C° 0 mm 2 mps 736 mmHg 48%
    19:00 +27°C° 0 mm 1 mps 736 mmHg 55%
    20:00 +26°C° 0 mm 1 mps 737 mmHg 57%
    21:00 +25°C° 0 mm 1 mps 737 mmHg 59%
    22:00 +24°C° 0 mm 1 mps 737 mmHg 60%
    23:00 +24°C° 0 mm 1 mps 737 mmHg 60%

    Day after tomorrow, 30 July, Sunday

    Time Temperature Precipitation Wind Pressure Humidity
    00:00 +24°C° 0 mm 1 mps 737 mmHg 61%
    01:00 +24°C° 0 mm 1 mps 737 mmHg 61%
    02:00 +24°C° 0 mm 1 mps 737 mmHg 61%
    03:00 +23°C° 0 mm 1 mps 737 mmHg 61%
    04:00 +23°C° 0 mm 1 mps 737 mmHg 61%
    05:00 +25°C° 0 mm 1 mps 737 mmHg 56%
    06:00 +27°C° 0 mm 1 mps 737 mmHg 51%
    07:00 +29°C° 0 mm 1 mps 737 mmHg 47%
    08:00 +31°C° 0 mm 1 mps 737 mmHg 41%
    09:00 +33°C° 0 mm 1 mps 737 mmHg 36%
    10:00 +35°C° 0 mm 1 mps 737 mmHg 31%
    11:00 +37°C° 0 mm 2 mps 737 mmHg 30%
    12:00 +37°C° 0 mm 2 mps 737 mmHg 29%
    13:00 +38°C° 0 mm 3 mps 736 mmHg 28%
    14:00 +37°C° 0 mm 3 mps 736 mmHg 30%
    15:00 +37°C° 0 mm 3 mps 736 mmHg 32%
    16:00 +36°C° 0 mm 3 mps 736 mmHg 34%
    17:00 +34°C° 0 mm 2 mps 736 mmHg 40%
    18:00 +30°C° 0 mm 2 mps 736 mmHg 46%
    19:00 +28°C° 0 mm 1 mps 736 mmHg 53%
    20:00 +27°C° 0 mm 1 mps 736 mmHg 55%
    21:00 +26°C° 0 mm 1 mps 736 mmHg 57%
    22:00 +26°C° 0 mm 1 mps 736 mmHg 59%
    23:00 +25°C° 0 mm 1 mps 736 mmHg 60%

    31 July, Monday

    Time Temperature Precipitation Wind Pressure Humidity
    00:00 +25°C° 0 mm 1 mps 736 mmHg 60%
    01:00 +25°C° 0 mm 1 mps 736 mmHg 60%
    02:00 +25°C° 0 mm 1 mps 736 mmHg 61%
    03:00 +24°C° 0 mm 1 mps 736 mmHg 62%
    04:00 +24°C° 0 mm 1 mps 736 mmHg 63%
    05:00 +26°C° 0 mm 1 mps 736 mmHg 59%
    06:00 +28°C° 0 mm 1 mps 736 mmHg 54%
    07:00 +30°C° 0 mm 1 mps 737 mmHg 50%
    08:00 +32°C° 0 mm 1 mps 737 mmHg 45%
    09:00 +33°C° 0 mm 1 mps 737 mmHg 40%
    10:00 +36°C° 0 mm 2 mps 737 mmHg 35%
    11:00 +37°C° 0 mm 2 mps 736 mmHg 33%
    12:00 +38°C° 0 mm 3 mps 736 mmHg 32%
    13:00 +38°C° 0 mm 3 mps 736 mmHg 30%
    14:00 +37°C° 0.2 mm 3 mps 735 mmHg 33%
    15:00 +36°C° 0.2 mm 3 mps 735 mmHg 36%
    16:00 +35°C° 0.2 mm 3 mps 735 mmHg 39%
    17:00 +32°C° 0.1 mm 2 mps 735 mmHg 44%
    18:00 +30°C° 0.1 mm 2 mps 735 mmHg 50%
    19:00 +28°C° 0.1 mm 1 mps 735 mmHg 55%
    20:00 +28°C° 0 mm 1 mps 736 mmHg 56%
    21:00 +27°C° 0 mm 1 mps 736 mmHg 57%
    22:00 +26°C° 0 mm 1 mps 736 mmHg 58%
    23:00 +26°C° 0 mm 1 mps 736 mmHg 57%

    1 August, Tuesday

    Time Temperature Precipitation Wind Pressure Humidity
    00:00 +26°C° 0 mm 1 mps 736 mmHg 57%
    01:00 +25°C° 0 mm 2 mps 736 mmHg 56%
    02:00 +25°C° 0 mm 2 mps 736 mmHg 57%
    03:00 +24°C° 0 mm 2 mps 736 mmHg 57%
    04:00 +24°C° 0 mm 2 mps 736 mmHg 58%
    05:00 +26°C° 0 mm 2 mps 737 mmHg 54%
    06:00 +27°C° 0 mm 2 mps 737 mmHg 51%
    07:00 +29°C° 0 mm 2 mps 737 mmHg 48%
    08:00 +31°C° 0 mm 2 mps 737 mmHg 42%
    09:00 +34°C° 0 mm 2 mps 737 mmHg 36%
    10:00 +36°C° 0 mm 2 mps 737 mmHg 30%
    11:00 +37°C° 0 mm 2 mps 737 mmHg 28%
    12:00 +38°C° 0 mm 3 mps 737 mmHg 25%
    13:00 +39°C° 0 mm 3 mps 736 mmHg 23%
    14:00 +39°C° 0 mm 3 mps 736 mmHg 24%
    15:00 +38°C° 0 mm 3 mps 736 mmHg 24%
    16:00 +38°C° 0 mm 4 mps 736 mmHg 24%
    17:00 +35°C° 0 mm 3 mps 736 mmHg 30%
    18:00 +32°C° 0 mm 2 mps 736 mmHg 37%
    19:00 +29°C° 0 mm 1 mps 736 mmHg 43%
    20:00 +28°C° 0 mm 1 mps 737 mmHg 44%
    21:00 +27°C° 0 mm 1 mps 737 mmHg 45%
    22:00 +26°C° 0 mm 1 mps 737 mmHg 46%
    23:00 +26°C° 0 mm 2 mps 737 mmHg 46%

    2 August, Wednesday

    Time Temperature Precipitation Wind Pressure Humidity
    00:00 +25°C° 0 mm 2 mps 737 mmHg 45%
    01:00 +25°C° 0 mm 2 mps 737 mmHg 44%
    02:00 +24°C° 0 mm 2 mps 737 mmHg 45%
    03:00 +24°C° 0 mm 2 mps 736 mmHg 45%
    04:00 +24°C° 0 mm 2 mps 736 mmHg 45%
    05:00 +25°C° 0 mm 2 mps 736 mmHg 44%
    06:00 +27°C° 0 mm 1 mps 737 mmHg 42%
    07:00 +29°C° 0 mm 1 mps 737 mmHg 40%
    08:00 +31°C° 0 mm 1 mps 737 mmHg 35%
    09:00 +33°C° 0 mm 1 mps 737 mmHg 30%
    10:00 +36°C° 0 mm 1 mps 737 mmHg 25%
    11:00 +37°C° 0 mm 2 mps 736 mmHg 23%
    12:00 +38°C° 0 mm 2 mps 736 mmHg 21%
    13:00 +39°C° 0 mm 3 mps 736 mmHg 19%
    14:00 +39°C° 0 mm 3 mps 736 mmHg 20%
    15:00 +40°C° 0 mm 4 mps 735 mmHg 20%
    16:00 +40°C° 0 mm 4 mps 735 mmHg 21%
    17:00 +36°C° 0 mm 3 mps 735 mmHg 26%
    18:00 +32°C° 0 mm 2 mps 735 mmHg 32%
    19:00 +29°C° 0 mm 1 mps 735 mmHg 38%
    20:00 +28°C° 0 mm 1 mps 735 mmHg 38%
    21:00 +27°C° 0 mm 1 mps 736 mmHg 38%
    22:00 +26°C° 0 mm 1 mps 736 mmHg 38%
    23:00 +26°C° 0 mm 2 mps 736 mmHg 38%
    Show more